Retour au catalogue

COSMOS 2381

GLONASS

ActifNavigationMEO
NORAD 26988·PAYLOAD·🇷🇺 Russia

Lancé Dec 1, 2001 depuis Baikonur Cosmodrome

Loading…

Prochains Passages (prochaines 24 heures)

TLE

VieillissantSource: Space-Track

Époque: Aug 29, 2026, 00:27 UTC

1 26988U 01053B   26241.01876500  .00000009  00000-0  00000+0 0  9992
2 26988  64.1401  54.8949 0045589 227.9982 102.6568  2.13103786192573

Suivez COSMOS 2381 en temps réel avec AllMySat

Download on the App Store